[[{"header":{"parameterUnit":"m.s-1","parameterCategory":1,"la1":30.2991,"la2":30.254,"lo1":-89.0895,"lo2":-89.0444,"dy":0.0017,"dx":0.0017,"nx":28,"ny":28,"refTime":"2025-01-01T09:00:00:Z","depth":0,"parameterNumber":2,"parameterNumberName":"U-component_of_WINDS"},"data":[0,0,0,0,0,0,0,0,0,0,0,0,0,0,0,0,0,0,0,0,0,0,0,0,0,0,0,0,0,0,0,0,0,0,0,0,0,0,0,0,0,0,0,0,0,0,0,0,0,0,0,0,0,0,0,0,0,0,-0.7273,-0.7272,0,-0.7241,-0.724,-0.724,-0.7193,-0.7192,-0.7192,-0.7191,-0.7159,-0.7158,-0.7158,0,0,0,0,0,0,0,0,0,0,0,0,0,-0.7294,-0.7294,-0.7273,-0.7272,-0.7272,-0.7241,-0.724,-0.724,-0.7193,-0.7192,-0.7191,-0.7191,-0.7159,-0.7158,-0.7158,0,0,0,0,0,0,0,0,0,0,0,0,0,-0.7276,-0.7294,-0.7273,-0.7245,-0.7242,-0.7241,-0.724,-0.724,-0.7194,-0.7192,-0.7191,-0.719,-0.7159,-0.7158,-0.7158,-0.7181,0,0,-0.7158,-0.7158,0,0,0,0,0,0,0,0,-0.7277,-0.7275,-0.725,-0.7247,-0.7244,-0.722,-0.7236,-0.722,-0.7194,-0.7212,-0.7191,-0.719,-0.718,-0.7178,-0.7175,-0.718,-0.7179,-0.7158,-0.7158,-0.7158,-0.7158,0,0,0,0,0,0,0,-0.7278,-0.7276,-0.726,-0.7249,-0.7246,-0.7234,-0.723,-0.7233,-0.7203,-0.721,-0.7207,-0.7204,-0.7178,-0.7175,-0.7173,-0.7178,-0.7158,-0.7158,-0.7158,-0.7157,-0.7199,-0.72,0,0,0,0,0,0,-0.7283,-0.7277,-0.7261,-0.7259,-0.7258,-0.7235,-0.723,-0.7229,-0.7203,-0.7198,-0.7205,-0.7202,-0.7176,-0.7174,-0.7172,-0.7196,-0.7158,-0.7157,-0.7157,-0.7198,-0.72,-0.7201,0,0,0,0,0,0,-0.7284,-0.7282,-0.7262,-0.7267,-0.7264,-0.7236,-0.7234,-0.7229,-0.7225,-0.7199,-0.7193,-0.7207,-0.7175,-0.7172,-0.7179,-0.7194,-0.7157,-0.7157,-0.7197,-0.7198,-0.72,-0.7246,0,0,0,0,0,0,-0.7285,-0.7283,-0.7292,-0.7268,-0.7264,-0.727,-0.7235,-0.7229,-0.7225,-0.7221,-0.7199,-0.7195,-0.7174,-0.718,-0.7179,-0.7194,-0.7157,-0.7195,-0.7197,-0.72,-0.7243,-0.7249,-0.7254,0,0,0,0,0,-0.7286,-0.7306,-0.7292,-0.729,-0.7274,-0.7271,-0.7269,-0.7244,-0.7227,-0.7235,-0.7218,-0.7195,-0.7193,-0.7181,-0.718,-0.7194,-0.7194,-0.7197,-0.7199,-0.724,-0.7247,-0.7254,0,0,0,0,0,0,-0.7333,-0.7302,-0.7287,-0.73,-0.7288,-0.7263,-0.7273,-0.7253,-0.7246,-0.7242,-0.7212,-0.7208,-0.7218,-0.7207,-0.7194,-0.7215,-0.719,-0.7193,-0.7221,-0.7228,-0.7234,-0.7236,-0.7157,0,0,0,0,0,-0.7345,-0.7345,-0.7318,-0.7332,-0.7327,-0.7301,-0.7299,-0.7281,-0.7268,-0.7263,-0.7246,-0.7234,-0.7231,-0.7229,-0.7224,-0.7241,-0.7235,-0.7251,-0.7256,-0.7261,-0.7263,-0.727,-0.7276,-0.721,-0.721,-0.721,0,0,-0.7369,-0.7352,-0.7354,-0.7341,-0.733,-0.7331,-0.7297,-0.73,-0.73,-0.7263,-0.7268,-0.7255,-0.724,-0.7252,-0.7256,-0.7243,-0.7281,-0.7265,-0.7269,-0.7268,-0.7273,-0.728,-0.7285,-0.7212,-0.7211,-0.7211,0,0,-0.7413,-0.7402,-0.7411,-0.7401,-0.7384,-0.7366,-0.7369,-0.7347,-0.7337,-0.7341,-0.7313,-0.7313,-0.7308,-0.7298,-0.7292,-0.7332,-0.731,-0.7331,-0.7361,-0.7367,-0.7373,-0.7377,-0.739,-0.7395,-0.7334,-0.7334,-0.7334,0,-0.7446,-0.7445,-0.7419,-0.7422,-0.7417,-0.7384,-0.7393,-0.7384,-0.7367,-0.7364,-0.735,-0.7342,-0.733,-0.7337,-0.7347,-0.7344,-0.7345,-0.7333,-0.7374,-0.7378,-0.7382,-0.7394,-0.7399,-0.7337,-0.7336,-0.7336,-0.7336,0,-0.7485,-0.7486,-0.7496,-0.7479,-0.7475,-0.7482,-0.7456,-0.7455,-0.7437,-0.7421,-0.7425,-0.7409,-0.74,-0.7401,-0.7384,-0.7406,-0.7398,-0.738,-0.7354,-0.7391,-0.7402,-0.7406,-0.734,-0.7339,-0.7339,-0.7338,0,0,-0.7558,-0.7527,-0.7531,-0.7522,-0.7501,-0.7501,-0.7506,-0.7497,-0.7496,-0.7485,-0.7488,-0.7484,-0.7466,-0.746,-0.7441,-0.7447,-0.7478,-0.7428,-0.7427,-0.7436,-0.75,-0.7513,-0.7519,-0.7464,-0.7465,-0.7466,-0.7501,0,-0.7597,-0.7604,-0.7579,-0.7592,-0.7591,-0.7559,-0.7563,-0.7551,-0.7536,-0.7533,-0.7516,-0.7513,-0.7491,-0.7486,-0.7491,-0.7474,-0.749,-0.7471,-0.7466,-0.7466,-0.7469,-0.7525,-0.7539,-0.7572,-0.7505,-0.7505,-0.7506,0,-0.7644,-0.7635,-0.7647,-0.7625,-0.7623,-0.7628,-0.7616,-0.7614,-0.7599,-0.7588,-0.758,-0.7559,-0.7561,-0.7538,-0.754,-0.7527,-0.7524,-0.7515,-0.7516,-0.7513,-0.7487,-0.7522,-0.7583,-0.7587,-0.7513,-0.7512,-0.7512,0,-0.7694,-0.7685,-0.7691,-0.7685,-0.7659,-0.7663,-0.7652,-0.7636,-0.7632,-0.7622,-0.7619,-0.761,-0.7605,-0.7598,-0.7575,-0.756,-0.758,-0.7555,-0.7569,-0.757,-0.7574,-0.7574,-0.7633,-0.7574,-0.7574,-0.7574,-0.7574,0,-0.774,-0.7748,-0.7713,-0.7716,-0.7724,-0.7697,-0.7705,-0.7692,-0.7677,-0.7677,-0.765,-0.765,-0.762,-0.7616,-0.7598,-0.7602,-0.7601,-0.7591,-0.7585,-0.7592,-0.7593,-0.7589,-0.7585,-0.7575,-0.7575,-0.7575,-0.7575,0,-0.7796,-0.7773,-0.7777,-0.7752,-0.7746,-0.7753,-0.7732,-0.7734,-0.7717,-0.7717,-0.7715,-0.7689,-0.7684,-0.766,-0.7649,-0.7637,-0.7646,-0.7637,-0.7651,-0.7648,-0.7663,-0.7662,-0.7721,-0.7726,-0.7665,-0.7666,-0.7667,0,-0.7826,-0.7832,-0.7807,-0.7805,-0.7796,-0.7793,-0.7788,-0.7761,-0.7757,-0.774,-0.7743,-0.7736,-0.7728,-0.7721,-0.7701,-0.7692,-0.7682,-0.7703,-0.768,-0.7686,-0.768,-0.768,-0.7679,-0.7708,-0.7708,-0.7709,-0.771,0,-0.7881,-0.787,-0.7864,-0.7854,-0.7849,-0.784,-0.7829,-0.7829,-0.7799,-0.7796,-0.779,-0.7784,-0.7772,-0.7765,-0.7753,-0.7741,-0.772,-0.7717,-0.772,-0.7726,-0.7733,-0.7728,-0.7663,-0.7716,-0.7715,-0.7715,-0.7714,-0.7714,-0.7924,-0.7927,-0.791,-0.7904,-0.7893,-0.7884,-0.7884,-0.7867,-0.7862,-0.785,-0.7835,-0.783,-0.7814,-0.7796,-0.7786,-0.7782,-0.777,-0.7774,-0.7775,-0.7776,-0.7779,-0.7735,-0.778,-0.778,-0.7779,-0.7779,-0.7779,0,-0.7977,-0.7964,-0.7959,-0.7945,-0.794,-0.7921,-0.7908,-0.7905,-0.7901,-0.7888,-0.7881,-0.7874,-0.7866,-0.7845,-0.7835,-0.7836,-0.7826,-0.7834,-0.7833,-0.783,-0.7791,-0.7789,-0.7842,-0.7842,-0.7842,-0.7842,-0.7842,-0.7842,-0.8003,-0.8007,-0.7993,-0.799,-0.7978,-0.7973,-0.7967,-0.7958,-0.7947,-0.794,-0.7933,-0.792,-0.7903,-0.7892,-0.7883,-0.7877,-0.7874,-0.7886,-0.7876,-0.784,-0.7833,-0.7828,-0.7825,-0.7886,-0.7886,-0.7916,-0.7916,-0.7916]},{"header":{"parameterUnit":"m.s-1","parameterCategory":1,"la1":30.2991,"la2":30.254,"lo1":-89.0895,"lo2":-89.0444,"dy":0.0017,"dx":0.0017,"nx":28,"ny":28,"refTime":"2025-01-01T09:00:00:Z","depth":0,"parameterNumber":3,"parameterNumberName":"V-component_of_WINDS"},"data":[0,0,0,0,0,0,0,0,0,0,0,0,0,0,0,0,0,0,0,0,0,0,0,0,0,0,0,0,0,0,0,0,0,0,0,0,0,0,0,0,0,0,0,0,0,0,0,0,0,0,0,0,0,0,0,0,0,0,-1.0474,-1.0474,0,-1.0394,-1.0393,-1.0392,-1.0327,-1.0326,-1.0326,-1.0325,-1.0241,-1.024,-1.0238,0,0,0,0,0,0,0,0,0,0,0,0,0,-1.057,-1.0569,-1.0474,-1.0473,-1.0472,-1.0394,-1.0393,-1.0391,-1.0327,-1.0326,-1.0325,-1.0325,-1.0242,-1.024,-1.0238,0,0,0,0,0,0,0,0,0,0,0,0,0,-1.0513,-1.0568,-1.0475,-1.0431,-1.0426,-1.0394,-1.0393,-1.0391,-1.0327,-1.0326,-1.0325,-1.0324,-1.0242,-1.024,-1.0238,-1.0242,0,0,-1.023,-1.0229,0,0,0,0,0,0,0,0,-1.0516,-1.051,-1.0438,-1.0434,-1.0428,-1.0369,-1.0396,-1.0341,-1.0327,-1.0365,-1.0325,-1.0324,-1.0285,-1.0279,-1.0266,-1.0238,-1.0235,-1.023,-1.0228,-1.0227,-1.0227,0,0,0,0,0,0,0,-1.052,-1.0513,-1.0442,-1.0437,-1.0431,-1.0414,-1.0405,-1.0385,-1.0331,-1.0361,-1.0356,-1.0348,-1.0282,-1.0268,-1.0263,-1.0233,-1.023,-1.0228,-1.0226,-1.0225,-1.0203,-1.0204,0,0,0,0,0,0,-1.0531,-1.0516,-1.0445,-1.044,-1.0471,-1.0413,-1.0403,-1.0389,-1.0331,-1.0321,-1.0349,-1.0345,-1.0273,-1.0266,-1.026,-1.026,-1.0227,-1.0225,-1.0224,-1.0202,-1.0203,-1.0204,0,0,0,0,0,0,-1.0534,-1.0526,-1.0448,-1.0477,-1.0466,-1.0413,-1.0398,-1.0388,-1.0374,-1.0322,-1.0311,-1.0345,-1.0272,-1.0263,-1.0247,-1.0256,-1.0224,-1.0222,-1.0201,-1.0203,-1.0204,-1.0262,0,0,0,0,0,0,-1.0537,-1.0527,-1.0529,-1.0477,-1.0464,-1.0437,-1.0398,-1.0387,-1.0371,-1.0365,-1.0315,-1.0306,-1.027,-1.0251,-1.0244,-1.0252,-1.022,-1.02,-1.0202,-1.0203,-1.0259,-1.0265,-1.027,0,0,0,0,0,-1.054,-1.0549,-1.0529,-1.0521,-1.0466,-1.0438,-1.0431,-1.0389,-1.0372,-1.0373,-1.0338,-1.0308,-1.0256,-1.0249,-1.0242,-1.0249,-1.0199,-1.0201,-1.0203,-1.0256,-1.0264,-1.027,0,0,0,0,0,0,-1.0603,-1.0541,-1.0519,-1.0511,-1.048,-1.0427,-1.0428,-1.0399,-1.0372,-1.0368,-1.0318,-1.0307,-1.0295,-1.027,-1.0264,-1.0249,-1.0224,-1.0224,-1.0266,-1.0273,-1.0279,-1.0285,-1.0218,0,0,0,0,0,-1.0616,-1.0599,-1.0546,-1.0544,-1.0529,-1.0481,-1.0468,-1.0438,-1.0404,-1.0391,-1.0355,-1.0323,-1.0299,-1.0284,-1.026,-1.0254,-1.0242,-1.0255,-1.0261,-1.0266,-1.0267,-1.026,-1.0266,-1.0211,-1.0211,-1.0211,0,0,-1.0643,-1.0607,-1.0599,-1.0556,-1.0528,-1.0511,-1.0471,-1.0455,-1.0441,-1.0388,-1.037,-1.0343,-1.0303,-1.0291,-1.0285,-1.027,-1.0279,-1.0269,-1.0273,-1.0271,-1.0263,-1.0268,-1.0273,-1.0212,-1.0212,-1.0212,0,0,-1.0683,-1.0654,-1.0649,-1.0622,-1.058,-1.0548,-1.0547,-1.0497,-1.0477,-1.0458,-1.0417,-1.0399,-1.036,-1.0333,-1.0314,-1.034,-1.0311,-1.0334,-1.0364,-1.0358,-1.0362,-1.0365,-1.0374,-1.0378,-1.0335,-1.0335,-1.0335,0,-1.0721,-1.0694,-1.0649,-1.0635,-1.0616,-1.0567,-1.056,-1.0536,-1.0489,-1.0477,-1.0461,-1.0409,-1.0379,-1.036,-1.0366,-1.0352,-1.0348,-1.034,-1.0365,-1.0368,-1.0371,-1.0378,-1.0382,-1.0338,-1.0338,-1.0337,-1.0337,0,-1.0742,-1.0724,-1.0725,-1.068,-1.0661,-1.0651,-1.0603,-1.0589,-1.0561,-1.053,-1.0509,-1.0471,-1.0437,-1.043,-1.0403,-1.0406,-1.0398,-1.0375,-1.0348,-1.038,-1.0386,-1.0388,-1.0342,-1.0341,-1.034,-1.034,0,0,-1.0822,-1.0751,-1.0752,-1.073,-1.068,-1.0664,-1.0651,-1.0617,-1.0605,-1.0574,-1.056,-1.0527,-1.0504,-1.0482,-1.0451,-1.0446,-1.0467,-1.0422,-1.042,-1.0431,-1.0467,-1.0485,-1.049,-1.0447,-1.0447,-1.0448,-1.047,0,-1.0853,-1.0827,-1.0785,-1.0772,-1.0754,-1.0705,-1.0693,-1.066,-1.063,-1.0609,-1.0575,-1.0552,-1.0524,-1.051,-1.0503,-1.0467,-1.0474,-1.0464,-1.0433,-1.0433,-1.0445,-1.0493,-1.0512,-1.0536,-1.0472,-1.0473,-1.0473,0,-1.0887,-1.0858,-1.0843,-1.0792,-1.0783,-1.0773,-1.0737,-1.0718,-1.0679,-1.0657,-1.0632,-1.0597,-1.0579,-1.0554,-1.0527,-1.0521,-1.0506,-1.0486,-1.0485,-1.0481,-1.0455,-1.049,-1.0542,-1.0546,-1.0476,-1.0476,-1.0476,0,-1.0945,-1.0902,-1.0887,-1.087,-1.0811,-1.0805,-1.0779,-1.0739,-1.0721,-1.0689,-1.0677,-1.0644,-1.0626,-1.06,-1.0557,-1.0543,-1.0534,-1.0506,-1.0514,-1.0515,-1.0515,-1.0516,-1.0566,-1.0505,-1.0505,-1.0505,-1.0505,0,-1.0985,-1.0978,-1.0912,-1.0903,-1.0893,-1.0844,-1.0835,-1.0805,-1.0769,-1.0752,-1.0708,-1.0693,-1.0636,-1.0614,-1.0579,-1.0561,-1.0554,-1.0535,-1.0526,-1.0539,-1.0541,-1.0528,-1.0525,-1.0506,-1.0506,-1.0506,-1.0506,0,-1.1049,-1.1005,-1.0986,-1.093,-1.0916,-1.0911,-1.0863,-1.0851,-1.0817,-1.0796,-1.0789,-1.0735,-1.0706,-1.066,-1.0618,-1.0595,-1.0583,-1.0568,-1.0596,-1.0591,-1.0602,-1.0601,-1.0645,-1.0648,-1.0586,-1.0587,-1.0587,0,-1.1078,-1.1071,-1.1015,-1.1,-1.0976,-1.0954,-1.0935,-1.0885,-1.0867,-1.082,-1.0814,-1.0782,-1.0753,-1.0709,-1.0666,-1.0633,-1.0617,-1.0634,-1.0612,-1.0624,-1.0616,-1.0617,-1.0616,-1.064,-1.0641,-1.0642,-1.0642,0,-1.1133,-1.1111,-1.1085,-1.1052,-1.103,-1.1001,-1.0969,-1.096,-1.0903,-1.0884,-1.0854,-1.0832,-1.0788,-1.0756,-1.0716,-1.0689,-1.0656,-1.065,-1.065,-1.0663,-1.068,-1.067,-1.0611,-1.0649,-1.0648,-1.0648,-1.0648,-1.0647,-1.118,-1.1171,-1.1129,-1.1101,-1.1072,-1.1043,-1.1029,-1.0993,-1.0967,-1.0928,-1.09,-1.0871,-1.0829,-1.0773,-1.0747,-1.0723,-1.0708,-1.0709,-1.0709,-1.071,-1.0714,-1.0683,-1.0715,-1.0715,-1.0715,-1.0715,-1.0714,0,-1.1232,-1.1203,-1.1178,-1.1135,-1.1112,-1.1083,-1.1045,-1.1029,-1.1004,-1.0968,-1.0941,-1.0905,-1.0873,-1.0827,-1.0791,-1.078,-1.0764,-1.0772,-1.0773,-1.0767,-1.073,-1.0733,-1.0786,-1.0786,-1.0786,-1.0786,-1.0786,-1.0786,-1.1257,-1.124,-1.1212,-1.1179,-1.1149,-1.1121,-1.1102,-1.1075,-1.1045,-1.1008,-1.0981,-1.0951,-1.091,-1.087,-1.0839,-1.0825,-1.0814,-1.0827,-1.081,-1.0776,-1.077,-1.0763,-1.0766,-1.0825,-1.0826,-1.0849,-1.0849,-1.0849]}]]